User: anonymous   Login
Location: Blue Mountain Vista Observatory
(40.6992°N, 75.9422°W)
Time: 15:33:12
(UTC-05:00)
Language:

CZ-4C R/B - Orbit

View from above orbital plane
View from above orbital plane
View from above satellite
View from above satellite

Ground track
Ground track

The orbit data is extracted from the following two-line orbital elements,

1 36416U 10009D   17328.04320585 -.00000069 +00000-0 +17496-4 0  9995
2 36416 063.4362 195.4045 0402858 355.9824 003.8009 13.69524617386109
Epoch (UTC): 24 November 2017 01:02:12
Eccentricity: 0.0402858
inclination: 63.4362°
perigee height: 704 km
apogee height: 1298 km
right ascension of ascending node: 195.4045°
argument of perigee: 355.9824°
revolutions per day: 13.69524617
mean anomaly at epoch: 3.8009°
orbit number at epoch: 38610

The dashed part of the orbit path shows where the satellite is in the earth's shadow,  

DLR